This demonstration page uses our WeatherBlox Daily Observations layout. Learn more.

Left ArrowRight Arrow

39.01783, -85.05884

Hourly Observations for December 27, 2016

Temp ( °F °C ) Dew Point ( °F °C ) Humidity (%) Winds ( mph kmh ) Pressure ( in mb ) Visibility ( mi km ) Precip ( " mm )
12:52 am 00:52 Cloudy 52 11.1 48 8.9 86 86 W 12 19 30.04 1017 10 16 N/A
1:52 am 01:52 Cloudy 51 10.6 43 6.1 74 74 WNW 15 24 30.05 1018 10 16 N/A
2:52 am 02:52 Cloudy 48 8.9 41 5 77 77 WNW 12 19 30.07 1018 10 16 N/A
3:52 am 03:52 Mostly Cloudy 44 6.7 34 1.1 68 68 NW 15 24 30.08 1019 10 16 N/A
4:52 am 04:52 Mostly Clear 39 3.9 29 -1.7 67 67 WNW 20 31 30.12 1020 10 16 N/A
5:52 am 05:52 Clear 36 2.2 26 -3.3 67 67 W 16 26 30.15 1021 10 16 N/A
6:52 am 06:52 Clear 33 0.6 25 -3.9 72 72 W 7 11 30.16 1021 10 16 N/A
7:52 am 07:52 Mostly Clear 32 undefined 25 -3.9 75 75 W 8 13 30.18 1022 10 16 N/A
8:52 am 08:52 Mostly Sunny 33 0.6 23 -5 66 66 W 13 20 30.19 1022 10 16 N/A
9:52 am 09:52 Sunny 35 1.7 24 -4.4 64 64 WSW 12 19 30.21 1023 10 16 N/A
10:52 am 10:52 Sunny 37 2.8 25 -3.9 62 62 W 13 20 30.20 1023 10 16 N/A
11:52 am 11:52 Sunny 39 3.9 25 -3.9 57 57 W 12 19 30.18 1022 10 16 N/A
12:52 pm 12:52 Sunny 41 5 26 -3.3 55 55 W 12 19 30.17 1022 10 16 N/A
1:52 pm 13:52 Sunny 42 5.6 27 -2.8 55 55 W 12 19 30.16 1021 10 16 N/A
2:52 pm 14:52 Sunny 43 6.1 27 -2.8 53 53 WSW 14 22 30.13 1020 10 16 N/A
3:52 pm 15:52 Sunny 43 6.1 27 -2.8 53 53 WSW 8 13 30.15 1021 10 16 N/A
4:52 pm 16:52 Sunny 41 5 26 -3.3 55 55 WSW 9 15 30.16 1021 10 16 N/A
5:52 pm 17:52 Clear 39 3.9 26 -3.3 60 60 WSW 6 9 30.17 1022 10 16 N/A
6:52 pm 18:52 Clear 37 2.8 26 -3.3 65 65 WSW 5 7 30.18 1022 10 16 N/A
7:52 pm 19:52 Clear 36 2.2 25 -3.9 64 64 WSW 7 11 30.19 1022 10 16 N/A
8:52 pm 20:52 Clear 35 1.7 25 -3.9 67 67 WSW 7 11 30.19 1022 10 16 N/A
9:52 pm 21:52 Clear 34 1.1 24 -4.4 67 67 W 9 15 30.20 1023 10 16 N/A
10:52 pm 22:52 Clear 32 undefined 24 -4.4 73 73 W 6 9 30.22 1023 10 16 N/A
11:52 pm 23:52 Clear 32 undefined 24 -4.4 73 73 WSW 5 7 30.22 1023 10 16 N/A

Powered by AerisWeather